Voltar ao catálogo

STARLINK-31898

AtivoComunicaçõesVLEO
NORAD 59905·PAYLOAD·🇺🇸 United States

Lançado May 28, 2024 de Cape Canaveral Space Force Station

Loading…

Próximas Passagens (próximas 24 horas)

TLE

AtualizadoSource: CelesTrak SupGP

Época: Sep 14, 2026, 20:49 UTC

1 59905C 24100W   26257.86784722 -.00017740  00000+0 -64268-3 0  2577
2 59905  43.0007 133.5875 0001374 267.7727 283.5458 15.27580638    10

Acompanhe STARLINK-31898 em tempo real com AllMySat

Download on the App Store